DMSP 5D-2 F13 DEB

Satellite information

Favourite Embed

Satellite Type and Status

DEBRISIN ORBIT

Key statistics

Satellite DMSP 5D-2 F13 DEB at a glance.

Uptime

11222

Days in orbit

Revolutions

≈ 14.3

Per day

Orbit

SSO

Sun Synchronous Orbit

Inclination

98.9

Latest

Satellite identification and parameters

Extended collection of information and parameters for DMSP 5D-2 F13 DEB.

Object identification

Identified? True

Debris? True

Object name: DMSP 5D-2 F13 DEB

International designator: 1995-015CM

Object number (NORAD): 40498

Object ID (CCSDS): 40498

Country: UNITED STATES OF AMERICA (US)

Current information (Y/N): Y

RCS size: SMALL

Orbital parameters

Period: 100.681 minutes

Inclination: 98.895 deg

SMA: 7168.986 km

Apoapsis: 810.95 km

Periapsis: 770.753 km

RAAN: 9.2403 deg

Eccentricy: 0.0028035

Argument of periapsis: 86.2386 deg

Mean anomaly: 274.2 deg

Mean motion: 14.30263752 rev/day

Mean motion (dot): 0.00006826 rev/day2

B* drag term: 0.0026364 1/REarth

Two-line elements (TLE)

Creation date: Dec. 10, 2025, 3:16 p.m.

Reference frame: TEME

Reference center: EARTH

Epoch: Dec. 10, 2025, 7:40 a.m. UTC

TLE line 0: 0 DMSP 5D-2 F13 DEB

TLE line 1: 1 40498U 95015CM 25344.31988887 .00006826 00000-0 26364-2 0 9990

TLE line 2: 2 40498 98.8950 9.2403 0028035 86.2386 274.2000 14.30263752555211

Live tracking on map

Real-time ground track for satellite DMSP 5D-2 F13 DEB.

In-orbit conjunctions

A list of the most updated potential collisions computed for object DMSP 5D-2 F13 DEB.

Target Orbit TCA Probability of collision Miss distance Type
THOR BURNER 2 R/B SSO 2025-06-15 19:31:28 0.001770784 31.0 (m) ROCKET BODY
CZ-6A DEB LEO 2025-03-03 23:25:35 0.0008479174 144.0 (m) DEBRIS
METEOR 1-17 DEB LEO 2024-11-09 03:01:49 0.0001684222 452.0 (m) DEBRIS
COSMOS 2251 DEB LEO 2024-08-30 14:20:00 0.0001187762 123.0 (m) DEBRIS

Associated space launch

Military meteorological satellite

DMSP 5D-2 F13 DEB was lifted into orbit during the mission ‘Atlas E | DMSP-5D2 F13’, on board a Atlas E space rocket.

The launch took place on March 24, 1995, 2:05 p.m. from Space Launch Complex 3W.

For more information about the launch, click the button.

Launch to space Atlas E | DMSP-5D2 F13
Atlas E | DMSP-5D2 F13

Agency: N/A

Status: Launch Successful

Launch date: March 24, 1995, 2:05 p.m. UTC

Rocket: Atlas E

Launch pad: Space Launch Complex 3W

Location: Vandenberg SFB, CA, USA

...

Latest news about this satellite

There are no fresh news available about this satellite. Check back as we update our databases every day.


Newsletter sign-up

Weekly statistics, charts and insights to help you stay on top of the space industry.